Location: Chrząstowo
(52.0654°N, 17.1290°E)
Time: 16:59:24
(UTC+01:00)

Envisat - Pass Details

Date: 19 December 2019
Orbit: 764 x 766 km, 98.1° (Epoch: 29 January)

Event Time Altitude Azimuth Distance (km) Brightness Sun altitude
Rises 18:02:58 0° 179° (S) 3,222 6.4 -20.4°
Reaches altitude 10° 18:05:20 10° 184° (S) 2,301 5.7 -20.8°
Maximum altitude 18:10:16 51° 261° (W) 962 3.8 -21.5°
Drops below altitude 10° 18:15:15 10° 337° (NNW) 2,317 5.6 -22.3°
Sets 18:17:38 0° 343° (NNW) 3,248 6.3 -22.6°
